Date,TemperatureHighF,TemperatureAvgF,TemperatureLowF,DewpointHighF,DewpointAvgF,DewpointLowF,HumidityHigh,HumidityAvg,HumidityLow,PressureMaxIn,PressureMinIn,WindSpeedMaxMPH,WindSpeedAvgMPH,GustSpeedMaxMPH,PrecipitationSumIn
2013-10-1,68,68,68,68,68,68,100,100,100,30.07,30.07,0,0,0,0.00
2013-10-2,71,67,65,71,67,65,100,100,100,30.15,30.09,1,0,0,0.00
2013-10-3,77,71,67,77,71,67,100,100,100,30.15,30.09,3,0,0,0.00
2013-10-4,79,73,69,79,73,69,100,100,100,30.15,30.08,6,1,0,0.00
2013-10-5,79,73,69,79,73,69,100,100,100,30.13,30.05,3,0,0,0.00
2013-10-6,83,76,71,83,76,71,100,100,100,30.07,29.93,6,2,0,0.00
2013-10-7,79,76,73,79,76,73,100,100,100,29.93,29.81,10,2,0,0.00
2013-10-8,75,68,61,75,68,61,100,100,100,30.06,29.85,11,6,0,0.00
2013-10-9,69,62,59,69,62,59,100,100,100,30.10,30.03,9,6,0,0.00
2013-10-10,69,64,60,69,64,60,100,100,100,30.07,29.98,4,1,0,0.00
2013-10-11,72,69,66,72,69,66,100,100,100,30.03,29.95,1,0,0,0.00
2013-10-12,75,71,67,75,71,67,100,100,100,30.06,29.95,5,0,0,0.00
2013-10-13,72,69,67,72,67,-100,100,98,100,30.12,30.04,6,2,0,0.00
2013-10-14,74,70,68,74,70,68,100,100,100,30.12,30.04,8,6,0,0.00
2013-10-15,68,66,64,68,66,64,100,100,100,30.11,30.03,8,6,0,0.00
2013-10-16,72,68,65,72,68,65,100,100,100,30.04,29.98,4,1,0,0.00
2013-10-17,72,67,65,72,67,65,100,100,100,30.01,29.96,0,0,0,0.00
2013-10-18,80,74,72,80,74,72,100,100,100,30.00,29.91,1,0,0,0.00
2013-10-19,80,73,68,80,73,68,100,100,100,29.98,29.88,2,0,0,0.00
2013-10-20,69,64,64,69,62,-100,100,98,100,30.08,29.92,4,2,0,0.00
2013-10-21,69,65,62,69,65,62,100,100,100,30.12,30.03,5,2,0,0.00
2013-10-22,68,66,64,68,66,64,100,100,100,30.03,29.87,3,0,0,0.00
2013-10-23,72,65,61,67,55,37,100,75,32,30.01,29.79,5,2,0,0.00
2013-10-24,65,61,58,39,35,28,43,37,32,30.22,30.02,4,1,0,0.00
2013-10-25,54,53,52,54,53,52,100,100,100,30.29,30.26,7,5,0,0.00
2013-10-26,44,43,42,44,43,42,100,100,100,30.32,30.31,5,4,0,0.00
2013-10-27,-200,0,200,-100,-100,-100,0,0,100,30.19,30.19,0,0,0,0.00
2013-10-28,68,62,61,68,60,-100,100,100,100,30.28,30.16,0,0,0,0.00
2013-10-29,70,62,58,70,62,58,100,100,100,30.35,30.26,4,0,0,0.00
2013-10-30,71,63,60,71,63,60,100,100,100,30.34,30.22,5,0,0,0.00
2013-10-31,76,68,62,76,68,62,100,100,100,30.23,30.01,5,1,0,0.00